PEGASUS DEB, 24594

Orbit data source: Space-Track

PEGASUS DEB, 24594 is space debris in LEO originally from a launch on Thu, 19 May 1994 UTC launched from the Air Force Western Test Range (AFWTR). Debris objects in space refer to the collection of defunct objects orbiting the Earth. Examples of debris include non-operational satellites, rocket bodies, and fragments generated from explosions, collisions, or faulty payload assembly.

Loading next visibility...
Identifier
24594, 1994-029YW
Orbit
LEO
Country
Flag of USUS
Related business
Manufacturer
Unknown
Mission
Spacecraft
Bus & Motor
Unknown
Mass
Unknown
Launch date (UTC)
1994-05-19 (32 years ago)
Launch vehicle
Unknown
Launch site
Air Force Western Test Range (AFWTR)
Object type
Payload
Rocket body
Debris
Shape & HBR
Unknown shape, 0.1 m
Radar Cross Section
Small (<0.1 m²)

Expand to show TLE details & history
Last TLE update: 11 hours ago

TLE from 11 hours ago
0 PEGASUS DEB
1 24594U 94029YW  26119.55616016  .00005501  00000-0  11379-2 0  9991
2 24594  81.4500  43.6780 0449236 102.4329 262.7485 14.11909532500780
Epoch: 2026-04-29T13:20Z
TLE epoch observation values (Epoch: 2026-04-29T13:20:52.237Z)
Latitude
-0.00001°
Longitude
-14.05508°
Altitude
911 km
Speed
7.368 km/s
True Right ascension
02h 54m 42s
True Declination
0° 00' 00"
Sunlit
Object was in daylight at epoch
Visualization orbit readout
Latitude
Unknown
Longitude
Unknown
Altitude
Unknown
Speed
Unknown
Apparent Right ascension
Unknown
Apparent Declination
Unknown
Sunlit
N/A
Visualization observer readout
Local Sidereal Time
07:47:52
Azimuth
Unknown
Elevation
Unknown
Doppler factor
Unknown
Orbital elements
Apogee altitude
1,174.712 km
Perigee altitude
525.284 km
Semi-major axis
7,228.135 km
Eccentricity
0.04492
Inclination
81.45°
RAAN
43.678°
Arg. of periapsis
102.4329°
True anomaly
257.68436°
Mean anomaly
262.7485°
Eccentric anomaly
260.21203°
Mean motion
3.53186 °/min
Orbital period
101.93 mins
BSTAR
0.0011379
Loading maneuver chart data...
Computing Atmospheric mass density...

Documentation

Showing up to 5 results
|